This demonstration page uses our WeatherBlox Daily Observations layout. Learn more.

Left ArrowRight Arrow

38.80484, -77.04692

Hourly Observations for September 20, 2020

Temp ( °F °C ) Dew Point ( °F °C ) Humidity (%) Winds ( mph kmh ) Pressure ( in mb ) Visibility ( mi km ) Precip ( " mm )
12:52 am 00:52 Mostly Clear 53 11.7 42 5.6 66 66 NNW 6 9 30.38 1029 10 16 N/A
1:52 am 01:52 Mostly Clear 51 10.6 43 6.1 74 74 NNW 6 9 30.39 1029 10 16 N/A
2:52 am 02:52 Clear 50 10 43 6.1 77 77 NNW 5 7 30.40 1029 10 16 N/A
3:52 am 03:52 Clear 48 8.9 43 6.1 83 83 NNW 6 9 30.40 1029 10 16 N/A
4:52 am 04:52 Clear 48 8.9 43 6.1 83 83 NNW 6 9 30.40 1030 10 16 N/A
5:52 am 05:52 Clear 47 8.3 43 6.1 86 86 NNW 6 9 30.42 1030 10 16 N/A
6:52 am 06:52 Mostly Clear 47 8.3 42 5.6 83 83 NNW 7 11 30.43 1031 10 16 N/A
7:52 am 07:52 Mostly Sunny 50 10 45 7.2 83 83 NNW 7 11 30.45 1031 10 16 N/A
8:52 am 08:52 Mostly Sunny 56 13.3 42 5.6 60 60 NNE 9 15 30.47 1032 10 16 N/A
9:52 am 09:52 Mostly Sunny 60 15.6 41 5 50 50 NE 9 15 30.48 1032 10 16 N/A
10:52 am 10:52 Mostly Sunny 64 17.8 43 6.1 46 46 NNE 9 15 30.49 1033 10 16 N/A
11:52 am 11:52 Mostly Sunny 65 18.3 39 3.9 39 39 NNE 10 17 30.50 1033 10 16 N/A
12:52 pm 12:52 Mostly Sunny 67 19.4 39 3.9 36 36 NNE 14 22 30.49 1032 10 16 N/A
1:52 pm 13:52 Mostly Sunny 67 19.4 40 4.4 37 37 NE 10 17 30.49 1032 10 16 N/A
2:52 pm 14:52 Mostly Sunny 69 20.6 41 5 36 36 E 7 11 30.47 1032 10 16 N/A
3:52 pm 15:52 Mostly Sunny 68 20 40 4.4 36 36 NE 8 13 30.47 1032 10 16 N/A
4:52 pm 16:52 Mostly Sunny 66 18.9 39 3.9 37 37 E 7 11 30.46 1032 10 16 N/A
5:52 pm 17:52 Mostly Sunny 65 18.3 43 6.1 45 45 ENE 13 20 30.46 1032 10 16 N/A
6:52 pm 18:52 Mostly Sunny 63 17.2 41 5 45 45 E 13 20 30.48 1032 10 16 N/A
7:52 pm 19:52 Clear 61 16.1 41 5 48 48 ENE 9 15 30.50 1033 10 16 N/A
8:52 pm 20:52 Clear 59 15 43 6.1 56 56 ENE 8 13 30.51 1033 10 16 N/A
9:52 pm 21:52 Clear 58 14.4 44 6.7 60 60 NE 9 15 30.52 1033 10 16 N/A
10:52 pm 22:52 Clear 56 13.3 45 7.2 67 67 ENE 8 13 30.52 1034 10 16 N/A
11:52 pm 23:52 Clear 56 13.3 43 6.1 62 62 NE 10 17 30.53 1034 10 16 N/A

Powered by AerisWeather